This is the latest recevied weather packets stored in our database for station/object KB3KAV. If no packets are shown the sender has not sent any weather packets the latest 10 day(s).
| Time | Temp. | Humidity | Pressure | Rain* | Wind** | Luminosity | Snow |
|---|---|---|---|---|---|---|---|
| 1777594781 | 10° C | 73% | 1040.1 hPa | 0 mm | - | 0 W/m² | - |
| 1777594179 | 10° C | 72% | 1039.8 hPa | 0 mm | - | 0 W/m² | - |
| 1777593577 | 10° C | 69% | 1039.6 hPa | 0 mm | - | 0 W/m² | - |
| 1777592973 | 9.44° C | 71% | 1039.5 hPa | 0 mm | - | 0 W/m² | - |
| 1777592369 | 10° C | 82% | 1039.3 hPa | 0 mm | - | 2 W/m² | - |
| 1777591769 | 10° C | 75% | 1038.9 hPa | 0 mm | - | 3 W/m² | - |
| 1777591166 | 10° C | 75% | 1038.8 hPa | 0 mm | - | 8 W/m² | - |
| 1777590564 | 10.56° C | 76% | 1038.9 hPa | 0 mm | - | 10 W/m² | - |
| 1777589963 | 10.56° C | 76% | 1038.8 hPa | 0 mm | - | 23 W/m² | - |
| 1777589363 | 10.56° C | 74% | 1038.6 hPa | 0 mm | - | 26 W/m² | - |
| 1777588762 | 10.56° C | 72% | 1038.4 hPa | 0 mm | - | 25 W/m² | - |
| 1777588158 | 11.11° C | 71% | 1038 hPa | 0 mm | - | 16 W/m² | - |
| 1777587555 | 11.11° C | 69% | 1038.1 hPa | 0 mm | - | 14 W/m² | - |
| 1777586952 | 11.67° C | 67% | 1038 hPa | 0 mm | - | 9 W/m² | - |
| 1777586349 | 11.67° C | 67% | 1037.7 hPa | 0 mm | - | 9 W/m² | - |
| 1777585747 | 12.22° C | 64% | 1037.4 hPa | 0 mm | - | 14 W/m² | - |
| 1777585143 | 12.78° C | 63% | 1037.3 hPa | 0 mm | - | 14 W/m² | - |
| 1777584543 | 13.33° C | 64% | 1037.1 hPa | 0 mm | - | 19 W/m² | - |
| 1777583939 | 13.33° C | 62% | 1037 hPa | 0 mm | - | 54 W/m² | - |
| 1777583333 | 13.33° C | 64% | 1036.5 hPa | 0 mm | - | 71 W/m² | - |
| 1777582732 | 13.33° C | 59% | 1036.7 hPa | 0 mm | - | 48 W/m² | - |
| 1777582127 | 13.33° C | 61% | 1036.6 hPa | 0 mm | - | 36 W/m² | - |
| 1777581525 | 13.89° C | 59% | 1036.5 hPa | 0 mm | - | 36 W/m² | - |
| 1777580921 | 14.44° C | 57% | 1036.5 hPa | 0 mm | - | 97 W/m² | - |
| 1777580317 | 14.44° C | 56% | 1036.5 hPa | 0 mm | - | 177 W/m² | - |
* Rain latest hour (hover to see other rain measurements)
** Current wind speed in m/s (hover to see current wind gust speed)